Location: Sedan
(39.2354°N, 78.5718°W)
Time: 19:29:39
(UTC+00:00)

ISS - Pass Details

Date: 05 December 2021
Orbit: 413 x 422 km, 51.6° (Epoch: 25 January)

Event Time Altitude Azimuth Distance (km) Brightness Sun altitude
Rises 22:14:36 0° 315° (NW) 2,386 0.4 -4.9°
Reaches altitude 10° 22:17:08 10° 334° (NNW) 1,516 -0.9 -5.3°
Maximum altitude 22:19:41 19° 23° (NNE) 1,064 -2.1 -5.8°
Drops below altitude 10° 22:22:13 10° 71° (ENE) 1,507 -1.6 -6.2°
Enters shadow 22:22:47 - 77° (ENE) 1,682 -1.4 -6.3°
